{"data":{"norad_id":64855,"intl_designator":"2025-152P","name":"STARLINK-34631","alt_names":[],"object_type":"PAYLOAD","status":"ACTIVE","operator":null,"country":"US","launch_date":"2025-07-19","launch_site_code":"AFWTR","launch_vehicle":null,"mission":null,"orbit_class":"UNKNOWN","rcs_meters":null,"size_class":null,"mass_kg":null,"dimensions":null,"purposes":["comms"],"wikipedia_slug":null,"has_3d_model":false,"image_url":null,"decayed_at":null,"tle_current":{"epoch":"2026-05-25T02:16:28.553952Z","epoch_age_seconds":70371,"freshness":"FRESH","line1":"1 64855U 25152P   26145.09477493  .00003086  00000+0  21781-3 0  9992","line2":"2 64855  97.4531   0.4314 0002150  83.7024 276.4448 15.05661324 46911","mean_motion":15.05661324,"eccentricity":0.000215,"inclination_deg":97.4531,"raan_deg":0.4314,"arg_perigee_deg":83.7024,"mean_anomaly_deg":276.4448,"bstar":0.00021781,"rev_number":4691,"period_min":95.639037614013,"perigee_km":547.9869821244,"apogee_km":550.96585589458,"semimajor_km":6927.6134190095,"source":"CELESTRAK","updated_at":"2026-05-25T13:38:20.614786Z"}}}